Regional Weather Roundup
Issued by NWS Grand Forks, ND

Home | Current Version | Previous Version | Text Only | Print | Product List | Glossary Off
Versions: 1 2 3 4 5 6 7 8 9 10 11 12 13 14 15 16 17 18 19 20 21 22 23 24 25 26 27 28 29 30 31 32 33 34 35 36 37 38 39 40 41 42 43 44 45 46 47 48 49 50

000
ASUS43 KFGF 210431
RWRFGF
PRAIRIE TO PINES  WEATHER ROUNDUP
NATIONAL WEATHER SERVICE EASTERN NORTH DAKOTA/GRAND FORKS ND
1100 PM CDT MON OCT 20 2014

 **SATELLITE DATA USED TO AUGMENT SKY COVER AT AUTOMATED STATIONS**
 *****  WEATHER ACROSS EASTERN NORTH DAKOTA  *****

CITY           SKY/WX    TMP DP  RH WIND       PRES   REMARKS
GRAND FORKS    CLEAR     45  38  76 SE7       30.04R
GRAND FRKS AFB CLEAR     41  39  93 S6        30.04S
GRAND FRKS NWS   N/A     43 N/A N/A SE9         N/A
DEVILS LAKE    CLEAR     48  39  71 SE9       29.98S
FARGO          CLEAR     47  37  68 E8        30.04R
WAHPETON ARPT  CLEAR     45  32  61 SE5       30.06R
$$

 ***** WEATHER ACROSS CENTRAL AND WESTERN NORTH DAKOTA  *****

CITY           SKY/WX    TMP DP  RH WIND       PRES   REMARKS
BISMARCK       CLEAR     54  34  46 SE9       29.94F
MINOT          CLEAR     48  35  60 E8        29.88F
JAMESTOWN      CLEAR     50  40  68 SE10      30.00S
MINOT AFB      CLEAR     49  37  63 SE10      29.87F
GARRISON         N/A     50  38  63 SE7       29.90S
WILLISTON      CLEAR     60  42  51 S6        29.81F
DICKINSON      CLEAR     52  39  61 SE13      29.85F
HETTINGER      CLEAR     51  39  63 E9        29.89F
$$

 *****  OTHER AIRPORT OBSERVATIONS IN OUR AREA  *****

CITY           SKY/WX    TMP DP  RH WIND       PRES   REMARKS
WALHALLA       FAIR      41  41 100 SE9       30.03R
GRAFTON AIRPOR FAIR      41  37  87 SE9       30.04S
VALLEY CITY AR FAIR      48  41  76 SE8       30.03S
CANDO          FAIR      45  41  87 SE10      29.98F
CAVALIER APRT  FAIR      43  37  81 SE6       30.04R
GWINNER        CLEAR     45  36  70 SE8       30.04F
ROLLA          FAIR      45  39  81 S12       29.97F
 ***** THE ABOVE OBSERVATIONS ARE NON NWS ARE NOT QUALITY
       CONTROLLED AND MAY MIS-REPORT RAIN FOR SNOW...
$$

  *****  WEATHER ACROSS NORTHERN MINNESOTA  *****

CITY           SKY/WX    TMP DP  RH WIND       PRES   REMARKS
FLAG ISLAND    CLEAR     45  37  76 SE8       30.10S
WARROAD        CLEAR     39  36  87 SE10      30.10R
ROSEAU         CLEAR     39  34  81 SE7       30.09S
HALLOCK        CLEAR     45  37  76 SE10      30.05S
THF RVR FALLS  CLEAR     37  34  87 SE6       30.08R
BAUDETTE       CLEAR     35  32  88 E7        30.11S
WASKISH        CLEAR     30  28  93 CALM      30.11S
CROOKSTON      CLEAR     45  37  76 SE10      30.07S
STEPHEN NDAWN    N/A     41  37  87 SE8         N/A
GREENBUSH NDAW   N/A     39  36  87 SE7         N/A
$$
  *****  WEATHER ACROSS CENTRAL AND WEST MINNESOTA  *****

CITY           SKY/WX    TMP DP  RH WIND       PRES   REMARKS
FOSSTON        CLEAR     36  30  80 E5        30.09R
BEMIDJI        CLEAR     38  36  93 E6        30.10R
PARK RAPIDS    CLEAR     41  38  89 E5        30.09R
ELBOW LAKE     FAIR      49  39  69 E3        30.06R
WADENA         CLEAR     41  36  81 E5        30.09R
DETROIT LAKES  CLEAR     45  37  76 SE7       30.08S
MOORHEAD       CLEAR     45  39  81 E5        30.06R
FERGUS FALLS   CLEAR     45  34  65 E6        30.07S
MORRIS MN      CLEAR     45  37  76 CALM      30.06R
STAPLES        CLEAR     41  37  87 CALM      30.10R
$$
  *****  WEATHER ELSEWHERE ACROSS MINNESOTA  *****

CITY           SKY/WX    TMP DP  RH WIND       PRES   REMARKS
DULUTH         CLOUDY    46  35  65 N6        30.10S
INTRNTL FALLS  CLOUDY    43  36  76 E8        30.13R
ELY            CLOUDY    41  34  75 E5        30.13S
CLOQUET        CLOUDY    46  36  66 NE6       30.11R
WHEATON        CLEAR     37  32  81 SE6       30.08S
BRAINERD       CLEAR     38  38 100 NE3       30.10R FOG
HIBBING        CLOUDY    45  35  68 E3        30.11R
ALEXANDRIA     CLEAR     46  39  76 E7        30.08R
SAINT CLOUD    CLEAR     46  38  73 CALM      30.09R
MINNEAPOLIS    CLEAR     48  39  71 NE5       30.09R
$$

  *****  WEATHER ACROSS SOUTH DAKOTA  *****

CITY           SKY/WX    TMP DP  RH WIND       PRES   REMARKS
SIOUX FALLS    CLEAR     43  38  82 CALM      30.06R
BROOKINGS      NOT AVBL
WATERTOWN      CLEAR     42  36  79 S3        30.05S
HURON          CLEAR     50  34  54 SE8       30.01F
SISSETON         N/A     38  35  89 SE3       30.05S
ABERDEEN       CLEAR     45  35  68 E8        30.01F
MITCHELL       CLEAR     48  36  63 SE7       30.03S
PIERRE         CLEAR     58  37  45 SE15      29.92F
MOBRIDGE       CLEAR     58  36  43 SE15      29.92S
RAPID CITY     CLEAR     57  43  59 SE6       29.90S
$$

  *****  SOME WEATHER IN NEARBY STATES *****

CITY           SKY/WX    TMP DP  RH WIND       PRES   REMARKS
GLASGOW MT     CLEAR     51  37  58 SE13      29.74F
GREAT FALLS MT CLEAR     66  33  29 S14       29.71F
CHEYENNE WY    CLEAR     49  35  58 W6        30.10S
SCOTTSBLUFF NE CLEAR     63  37  38 S14G20    30.01S
OMAHA NE       CLEAR     49  44  83 CALM      30.08R
DES MOINES IA  CLEAR     55  41  59 CALM      30.05R
DAVENPORT IA   CLEAR     47  40  76 E7        30.04R
CHICAGO IL     MOCLDY    52  41  66 N9        30.00R
EAU CLAIRE WI  CLEAR     45  38  76 N5        30.07R
LA CROSSE WI   CLEAR     45  40  82 CALM      30.06R
$$

  *****  SOME NATIONAL WEATHER *****

CITY           SKY/WX    TMP DP  RH WIND       PRES   REMARKS
LA GUARDIA NY  CLOUDY    58  44  60 SW9       29.97S
RALEIGH NC     LGT RAIN  55  49  80 CALM      29.98F
ATLANTA GA     CLEAR     60  52  74 W5        30.03R
NEW ORLEANS LA PTCLDY    66  55  67 CALM      30.02S
OKLAHOMA CITY  CLEAR     66  61  84 SE7       30.05S
ALBUQUERQUE NM CLOUDY    58  46  64 E9        30.18S
SALT LAKE CITY PTCLDY    61  38  42 SE7       29.91R
LOS ANGELES CA PTCLDY    67  63  87 SW6       29.89S
BOISE ID       MOCLDY    63  39  41 CALM      29.69F
SEATTLE WA     MOCLDY    57  50  77 S7        29.78S
$$

*** WEATHER ACROSS MANITOBA...SASKATCHEWAN AND ONTARIO ***
                ***ONTARIO***

CITY           SKY/WX    TMP DP  RH WIND       PRES   REMARKS
GERALDTON      CLEAR     30  28  93 N5        30.17R
THUNDER BAY    PTCLDY    36  32  87 NE5       30.17R
SIOUX LOOKOUT  CLOUDY    36  34  93 VRB2      30.16R
TORONTO        CLOUDY    52  48  87 W3        29.80R
BIG TROUT LK   CLOUDY    34  30  86 S7        30.18S
PICKLE LAKE    NOT AVBL
DRYDEN         CLOUDY    39  34  81 SE10      30.14S
KENORA         CLEAR     37  34  87 SE7       30.12R
$$
                *** MANITOBA***

CITY           SKY/WX    TMP DP  RH WIND       PRES   REMARKS
BRANDON        CLEAR     39  37  93 E7        29.94S
DAUPHIN        CLEAR     34  34 100 VRB7      29.87F FOG
ISLAND LAKE    CLOUDY    37  34  87 S15G22    30.06F
PILOT MOUND      N/A     43  37  81 SE10        N/A
THE PAS        CLEAR     43  41  93 SE15G22   29.76F
THOMPSON       PTCLDY    37  36  93 SE12G20   29.90F
WINNIPEG       CLEAR     43  37  81 SE13      30.04S
LYNN LAKE      CLOUDY    37  36  93 S14G21    29.73S
CHURCHILL      CLOUDY    34  34 100 S15       29.97F WCI  24
GILLAM         CLOUDY    36  32  87 S13G21    30.01F
$$
                ***SASKATCHEWAN***

CITY           SKY/WX    TMP DP  RH WIND       PRES   REMARKS
ESTEVAN        CLEAR     52  41  66 SE8       29.81
KINDERSLEY     CLEAR     48  34  57 S8        29.62S
LLOYDMINSTER   CLEAR     52  34  50 S9        29.53F
PRINCE ALBERT  CLEAR     43  39  87 CALM      29.62S
REGINA         CLEAR     50  43  76 SE13      29.75S
YORKTON        CLEAR     52  41  66 S13G20    29.78F
N. BATTLEFORD  CLEAR     50  36  57 E12       29.59F
LA RONGE       PTCLDY    48  43  81 E5        29.59F
SASKATOON      CLEAR     55  41  58 S10       29.63F
SWIFT CURRENT  CLEAR     55  43  62 S15       29.69S
$$
NOTE: THESE ARE AUTOMATED STATIONS WITH LIMITED QUALITY CONTROL
      "FAIR" INDICATES FEW OR NO CLOUDS BELOW 12,000 FEET WITH NO
      SIGNIFICANT WEATHER AND/OR OBSTRUCTIONS TO VISIBILITY.
      SKY/WX - SKY CONDITION AND SIGNIFICANT WEATHER.
      TMP - AIR TEMPERATURE.    DP   - DEWPOINT TEMPERATURE.
      RH  - RELATIVE HUMIDITY.  PRES - PRESSURE.
      HX  - HEAT INDEX.         WCI  - WIND CHILL INDEX.
$



USA.gov is the U.S. government's official web portal to all federal, state and local government web resources and services.